PROFILE

 METAR AND TAF INFORMATION
ADDS - METARS form results

(1354 UTC 25 September 2022)
http://aviationweather.gov/metar/data/
 
MHTG 251300Z 00000KT 9999 6000SW SCT006 BKN026 20/20 Q1016 A3000 NOSIG
TAF MHTG 251100Z 2512/2612 VRB05KT 8000 FEW008 BKN026 TX27/2519Z TN17/2612Z BECMG 2514/2516 9999 SCT028TCU TEMPO 2520/2602 5000 TSRA BKN030TCU FEW032CB BECMG 2602/2604 9999 NSW FEW028 

 AIRPORT MAP

 RUNWAY INFORMATION
Runway 02 Runway length 6112 ft Runway width 148 ft
Runway elevation 3337 ft Runway displaced threshold 670 ft Runway heading 19
Runway 20 Runway length 6112 ft Runway width 148 ft
Runway elevation 3268 ft Runway displaced threshold 0 ft Runway heading 199

 AIRPORT FREQUENCIES
Type APP Name TONCONTIN Frequency 119.1 MHZ
Type ATIS Name ATIS Frequency 112.3 MHZ
Type GND Name GND Frequency 121.9 MHZ
Type RDO Name TEGUCIGALP Frequency 126.7 MHZ
Type TWR Name TWR Frequency 118.7 MHZ

 AIRPORT NEAR NAVIGATION AIDS
Type NDB Name Picacho Frequency 334 KHZ
Type VOR-DME Name Toncontin Frequency 112300 KHZ
Type NDB Name Toncontin Frequency 405 KHZ